sat.trackr.live / text

‹ back to catalog

STARLINK-36032

NORAD 66594 · 2025-270G

PAYLOAD ACTIVE UNKNOWN

§ Identity

Operator
Country
US
Launch date
2025-11-22
Launch site
AFETR
Launch vehicle
Mass (kg)
RCS (m²)

Purposes: comms

External: N2YO · Heavens-Above · Gunter

§ Orbital elements

Epoch: 2026-09-20T16:07:55.853472Z

Period
94.27 min
Inclination
43.0013°
Eccentricity
0.0001088
Mean motion
15.27586935 rev/d
Perigee alt
482.3 km
Apogee alt
483.8 km
Semi-major
6,861.2 km
B*
3.6796e-4
RAAN
35.2177°
Arg perigee
280.6235°
Mean anomaly
79.4494°
Rev number
4,733

§ Raw data

STARLINK-360321 66594U 25270G   26263.67217423  .00009879  00000+0  36796-3 0  99932 66594  43.0013  35.2177 0001088 280.6235  79.4494 15.27586935 47336

JSON: /api/v1/satellites/66594 · /tle

For live sub-satellite position, see the globe view (requires WebGL).

§ Visibility from observer

Set your observer location to see the next 7 days of passes ≥ 10°. The values pass through the URL so the page stays shareable.

No JS? Fill the form by hand. The geolocation button needs JavaScript.